This demonstration page uses our WeatherBlox Daily Observations layout. Learn more.

Left ArrowRight Arrow

34.74481, -87.66753

Hourly Observations for May 1, 2022

Temp ( °F °C ) Dew Point ( °F °C ) Humidity (%) Winds ( mph kmh ) Pressure ( in mb ) Visibility ( mi km ) Precip ( " mm )
12:53 am 00:53 Clear 70 21.1 65 18.3 84 84 S 7 11 29.90 1013 10 16 0.00 0.00
1:53 am 01:53 Mostly Cloudy 70 21.1 66 18.9 87 87 S 8 13 29.89 1012 10 16 0.00 0.00
2:26 am 02:26 Partly Cloudy with Nearby Thunderstorms 70 21.1 66 18.9 87 87 WSW 10 17 29.93 1013 10 16 0.00 0.00
2:50 am 02:50 Cloudy with Rain 70 21 66 19 88 88 SW 14 22 29.94 1014 10 16 0.03 0.76
2:53 am 02:53 Cloudy with Light Rain 70 21.1 66 18.9 87 87 SW 15 24 29.93 1014 10 16 0.03 0.76
3:02 am 03:02 Cloudy with Nearby Thunderstorms 69 20.6 66 18.9 90 90 SW 13 20 29.94 1014 10 16 0.01 0.25
3:17 am 03:17 Cloudy with Light Rain 69 20.6 65 18.3 87 87 SW 9 15 29.94 1014 10 16 0.03 0.76
3:53 am 03:53 Cloudy with Rain 68 20 65 18.3 90 90 SW 8 13 29.95 1014 7 11 0.08 2.03
4:15 am 04:15 Cloudy with Nearby Thunderstorms 69 20.6 63 17.2 81 81 SSW 20 31 29.96 1014 7 11 0.06 1.52
4:30 am 04:30 Cloudy with Rain 68 20 62 16.7 81 81 S 17 28 29.93 1013 7 11 0.11 2.79
4:53 am 04:53 Mostly Cloudy with Light Rain 68 20 59 15 73 73 S 17 28 29.87 1011 10 16 0.12 3.05
5:53 am 05:53 Clear 64 17.8 58 14.4 81 81 WNW 5 7 29.94 1014 10 16 0.00 0.00
6:53 am 06:53 Sunny 64 17.8 59 15 84 84 WNW 8 13 29.97 1015 10 16 0.00 0.00
7:53 am 07:53 Sunny 66 18.9 61 16.1 84 84 NW 6 9 29.98 1015 10 16 0.00 0.00
8:53 am 08:53 Cloudy 68 20 63 17.2 84 84 SW 6 9 30.02 1017 10 16 0.00 0.00
9:53 am 09:53 Mostly Cloudy 70 21.1 62 16.7 76 76 WSW 3 6 30.03 1017 10 16 0.00 0.00
10:53 am 10:53 Cloudy 72 22.2 62 16.7 71 71 undefined N/A 30.03 1017 10 16 0.00 0.00
11:01 am 11:01 Cloudy 72 22.2 62 16.7 71 71 W 6 9 30.02 1017 10 16 0.00 0.00
11:53 am 11:53 Cloudy 73 22.8 63 17.2 71 71 W 6 9 30.02 1017 10 16 0.00 0.00
12:53 pm 12:53 Cloudy 74 23.3 63 17.2 69 69 WSW 6 9 30.00 1016 10 16 0.00 0.00
1:53 pm 13:53 Mostly Cloudy 77 25 66 18.9 69 69 W 7 11 29.99 1016 10 16 0.00 0.00
2:14 pm 14:14 Mostly Cloudy 78 25.6 66 18.9 67 67 SW 9 15 29.98 1015 10 16 0.00 0.00
2:53 pm 14:53 Mostly Cloudy 79 26.1 66 18.9 65 65 WSW 12 19 29.98 1015 10 16 0.00 0.00
3:53 pm 15:53 Partly Cloudy 80 26.7 65 18.3 60 60 WNW 8 13 29.96 1015 10 16 0.00 0.00
4:53 pm 16:53 Mostly Cloudy 79 26.1 62 16.7 56 56 W 10 17 29.95 1014 10 16 0.00 0.00
5:53 pm 17:53 Sunny 80 26.7 59 15 49 49 W 9 15 29.96 1014 10 16 0.00 0.00
6:53 pm 18:53 Sunny 76 24.4 60 15.6 58 58 W 7 11 29.96 1015 10 16 0.00 0.00
7:53 pm 19:53 Clear 70 21.1 60 15.6 71 71 WSW 3 6 29.98 1015 10 16 0.00 0.00
8:53 pm 20:53 Clear 67 19.4 61 16.1 81 81 Calm 29.99 1016 10 16 0.00 0.00
9:53 pm 21:53 Clear 65 18.3 61 16.1 87 87 Calm 30.02 1017 10 16 0.00 0.00
10:53 pm 22:53 Clear 63 17.2 60 15.6 90 90 Calm 30.02 1017 10 16 0.00 0.00
11:53 pm 23:53 Clear 61 16.1 59 15 93 93 Calm 30.03 1017 10 16 0.00 0.00

Powered by AerisWeather